Regional Weather Roundup
Issued by NWS

Home | Current Version | Previous Version | Graphics & Text | Print | Product List | Glossary On
Versions: 1 2 3 4 5 6 7 8 9 10 11 12 13 14 15 16 17 18 19 20 21 22 23 24 25 26 27 28
000
ASUS45 KBOI 251010
RWRID
WEATHER ROUNDUP FOR IDAHO
NATIONAL WEATHER SERVICE BOISE ID
400 AM MDT SAT OCT 25 2014

NOTE: "FAIR" INDICATES FEW OR NO CLOUDS BELOW 12000 FEET
WITH NO SIGNIFICANT WEATHER AND/OR OBSTRUCTIONS TO VISIBILITY

IDZ012-014-251100-
SOUTHWEST IDAHO


CITY           SKY/WX    TMP DP  RH WIND       PRES   REMARKS
BOISE          FOG       45  44  97 CALM      29.87F VSB 1/4
CALDWELL       CLOUDY    43  34  70 CALM      29.90F VSB 1/4
MOUNTAIN HOME  CLEAR     43  43 100 CALM      29.90F
$$

IDZ016-017-251100-
SOUTHCENTRAL IDAHO


CITY           SKY/WX    TMP DP  RH WIND       PRES   REMARKS
BURLEY         CLEAR     43  32  65 CALM      29.98S
JEROME         CLEAR     50  30  46 NE10      29.96F
TWIN FALLS     CLEAR     65  27  23 S17       29.93F
$$

IDZ019>023-251100-
SOUTHEAST IDAHO


CITY           SKY/WX    TMP DP  RH WIND       PRES   REMARKS
IDAHO FALLS    CLEAR     38  30  73 N9        30.07F WCI  31
POCATELLO      CLEAR     39  31  72 NE7       30.04F WCI  34
REXBURG        CLEAR     37  29  72 NE6       30.09F WCI  32
$$

IDZ006-010-011-018-031-032-251100-
CENTRAL IDAHO MOUNTAINS


CITY           SKY/WX    TMP DP  RH WIND       PRES   REMARKS
MCCALL         FOG       34  34 100 CALM      29.95F VSB 1/4
HAILEY         CLEAR     41  32  70 NW9       30.09F
STANLEY          N/A     28  25  88 CALM      30.09F
SALMON         CLOUDY    43  39  87 SW3       30.06F
CHALLIS        CLEAR     33  31  92 N3        30.06F
$$

IDZ002-004-006-007-026-251100-
NORTHERN IDAHO


CITY           SKY/WX    TMP DP  RH WIND       PRES   REMARKS
LEWISTON       CLOUDY    49  47  93 E8        29.82F
LOWELL           N/A     48  46  93 N5        29.92F
COEUR D`ALENE  CLOUDY   N/A N/A N/A N16       29.85F
MULLAN PASS    FOG       36  36 100 S10G17    29.94F VSB 1/4 WCI  28
$$



USA.gov is the U.S. government's official web portal to all federal, state and local government web resources and services.